Location: ??
(34.7252°N, 135.5457°E)
Time: 07:39:35
(UTC+00:00)

X-37B - Pass Details

Date: 24 September 2020
Orbit: 382 x 392 km, 45.0° (Epoch: 15 October)

Event Time Altitude Azimuth Distance (km) Brightness Sun altitude
Exits shadow 19:22:58 54° 321° (NW) 469 0.7 -18.2°
Maximum altitude 19:23:33 76° 30° (NNE) 396 0.6 -18.1°
Drops below altitude 10° 19:26:42 10° 118° (ESE) 1,396 4.1 -17.4°
Sets 19:28:46 0° 120° (ESE) 2,248 5.2 -17.0°
